Squamish, British Columbia

2:30 AM PDT on July 21, 2017 (GMT -0700)
Squamish

Weather History for CWSK - February, 2013

Change the Weather History Date:

Friday, February 15, 2013

  Actual Average Record
Temperature  
Mean Temperature 44 °F -  
Max Temperature 53 °F - - ()
Min Temperature 35 °F - - ()
Degree Days  
Heating Degree Days 21    
Moisture  
Dew Point 37 °F    
Average Humidity 87    
Maximum Humidity 99    
Minimum Humidity 53    
Precipitation  
Precipitation 0.01 in - - ()
Sea Level Pressure  
Sea Level Pressure 30.41 in    
Wind  
Wind Speed 2 mph ()    
Max Wind Speed 5 mph    
Max Gust Speed -    
T = Trace of Precipitation, MM = Missing Value Source: Averaged Metar Reports

Daily Weather History Graph

Daily Weather History Graph

Search for Another Location

Airport or City:

Trip Planner

Search our weather history database for the weather conditions in past years. The results will help you decide how hot, cold, wet, or windy it might be!

Date:

Astronomy

Feb. 15, 2013 Rise Set
Actual Time 7:21 AM PST 5:32 PM PST
Civil Twilight 6:48 AM PST 6:05 PM PST
Nautical Twilight 6:11 AM PST 6:43 PM PST
Astronomical Twilight 5:34 AM PST 7:20 PM PST
Moon 9:23 AM PST (2/15) No Moon Set
Length of Visible Light 11h 16m
Length of Day
10h 10m
Waxing Crescent, 31% of the Moon is Illuminated
Feb 15
Waxing Crescent
Feb 17
First Quarter
Feb 25
Full
Mar 4
Last Quarter
Mar 11
New

Hourly Weather History & Observations

Time (PST) Temp. Windchill Dew Point Humidity Pressure Visibility Wind Dir Wind Speed Gust Speed Precip Events Conditions
12:00 AM 37.4 °F - 37.2 °F 99% 30.60 in - North 2.3 mph - N/A   Unknown
1:00 AM 38 °F - 37 °F 96% 30.59 in - NNW 1.2 mph - -  
1:00 AM 37.6 °F - 37.2 °F 99% 30.59 in - NNW 1.2 mph - N/A   Unknown
2:00 AM 37.6 °F 35.1 °F 37.2 °F 99% 30.58 in - North 3.5 mph - N/A   Unknown
3:00 AM 37.6 °F - 37.0 °F 98% 30.56 in - North 2.3 mph - N/A   Unknown
4:00 AM 37 °F - 36 °F 97% 30.55 in - North 2.3 mph - -  
4:00 AM 37.2 °F - 36.5 °F 97% 30.55 in - North 2.3 mph - N/A   Unknown
5:00 AM 37.0 °F - 36.7 °F 99% 30.54 in - North 2.3 mph - N/A   Unknown
6:00 AM 37.0 °F - 36.7 °F 99% 30.53 in - North 2.3 mph - N/A   Unknown
7:00 AM 37 °F - 37 °F 98% 30.52 in - North 1.2 mph - -  
7:00 AM 36.9 °F - 36.7 °F 99% 30.52 in - North 1.2 mph - N/A   Unknown
8:00 AM 35.6 °F - 35.4 °F 99% 30.51 in - North 1.2 mph - N/A   Unknown
9:00 AM 37.8 °F - 37.4 °F 99% 30.50 in - NNW 2.3 mph - N/A   Unknown
10:00 AM 43 °F - 38 °F 76% 30.48 in - NNW 2.3 mph - -  
10:00 AM 43.2 °F - 37.9 °F 82% 30.48 in - NNW 2.3 mph - N/A   Unknown
11:00 AM 45.7 °F 44.4 °F 37.8 °F 74% 30.45 in - NW 3.5 mph - N/A   Unknown
12:00 PM 49.3 °F - 36.7 °F 62% 30.42 in - NW 2.3 mph - N/A   Unknown
1:00 PM 49 °F - 37 °F 53% 30.38 in - WNW 2.3 mph - -  
1:00 PM 49.5 °F - 37.0 °F 62% 30.38 in - WNW 2.3 mph - N/A   Unknown
2:00 PM 51.6 °F - 37.4 °F 58% 30.36 in - West 2.3 mph - N/A   Unknown
3:00 PM 52.9 °F - 37.6 °F 56% 30.33 in - SW 3.5 mph - N/A   Unknown
4:00 PM 48 °F - 39 °F 61% 30.31 in - Calm Calm - -  
4:00 PM 47.7 °F - 38.7 °F 71% 30.31 in - Calm Calm - N/A   Unknown
5:00 PM 43.5 °F - 39.9 °F 87% 30.29 in - ENE 1.2 mph - N/A   Unknown
6:00 PM 39.7 °F - 38.5 °F 95% 30.28 in - ENE 1.2 mph - N/A   Unknown
7:00 PM 38 °F - 37 °F 95% 30.27 in - NNE 2.3 mph - -  
7:00 PM 37.9 °F - 37.0 °F 97% 30.27 in - NNE 2.3 mph - N/A   Unknown
8:00 PM 39.4 °F 37.2 °F 37.9 °F 95% 30.25 in - North 3.5 mph - N/A   Unknown
9:00 PM 38.5 °F - 37.6 °F 97% 30.24 in - North 1.2 mph - N/A   Unknown
10:00 PM 39 °F - 38 °F 93% 30.21 in - NNW 3.5 mph - -  
10:00 PM 39.4 °F 37.2 °F 37.8 °F 94% 30.21 in - NNW 3.5 mph - N/A   Unknown
11:00 PM 39.7 °F 36.5 °F 37.2 °F 91% 30.19 in - North 4.6 mph - N/A   Unknown